Previsão horária em Barrancas

Hoje, 27 Outubro, Terça-feira

Tempo Temperatura Precipitação Vento Pressão Humidade
00:00 +25°C° 0 mm 1 m/s 757 mmHg 96%
01:00 +25°C° 0 mm 1 m/s 756 mmHg 97%
02:00 +25°C° 0 mm 1 m/s 756 mmHg 97%
03:00 +25°C° 0 mm 1 m/s 756 mmHg 97%
04:00 +25°C° 0 mm 1 m/s 756 mmHg 98%
05:00 +24°C° 0 mm 1 m/s 756 mmHg 98%
06:00 +26°C° 0 mm 1 m/s 756 mmHg 94%
07:00 +27°C° 0 mm 1 m/s 757 mmHg 89%
08:00 +28°C° 0 mm 1 m/s 757 mmHg 82%
09:00 +30°C° 0 mm 2 m/s 757 mmHg 73%
10:00 +32°C° 0 mm 2 m/s 757 mmHg 63%
11:00 +35°C° 0 mm 2 m/s 757 mmHg 54%
12:00 +35°C° 0.2 mm 2 m/s 756 mmHg 56%
13:00 +35°C° 0.2 mm 3 m/s 755 mmHg 57%
14:00 +35°C° 0.2 mm 3 m/s 754 mmHg 59%
15:00 +33°C° 0.5 mm 3 m/s 754 mmHg 66%
16:00 +31°C° 0.5 mm 3 m/s 753 mmHg 73%
17:00 +29°C° 0.5 mm 2 m/s 753 mmHg 80%
18:00 +28°C° 0 mm 2 m/s 754 mmHg 85%
19:00 +27°C° 0 mm 1 m/s 755 mmHg 90%
20:00 +26°C° 0 mm 1 m/s 755 mmHg 96%
21:00 +26°C° 0 mm 1 m/s 755 mmHg 97%
22:00 +25°C° 0 mm 1 m/s 755 mmHg 97%
23:00 +25°C° 0 mm 1 m/s 755 mmHg 98%

Amanhã, 28 Outubro, Quarta-feira

Tempo Temperatura Precipitação Vento Pressão Humidade
00:00 +25°C° 0 mm 1 m/s 755 mmHg 98%
01:00 +25°C° 0 mm 1 m/s 754 mmHg 98%
02:00 +23°C° 0 mm 0 m/s 754 mmHg 99%
03:00 +23°C° 0 mm 0 m/s 754 mmHg 99%
04:00 +23°C° 0 mm 0 m/s 754 mmHg 99%
05:00 +23°C° 0 mm 0 m/s 754 mmHg 99%
06:00 +24°C° 0 mm 0 m/s 755 mmHg 95%
07:00 +27°C° 0 mm 1 m/s 755 mmHg 91%
08:00 +28°C° 0 mm 1 m/s 756 mmHg 87%
09:00 +30°C° 0.1 mm 1 m/s 756 mmHg 77%
10:00 +32°C° 0.1 mm 1 m/s 756 mmHg 68%
11:00 +34°C° 0.1 mm 1 m/s 755 mmHg 59%
12:00 +34°C° 0.4 mm 1 m/s 754 mmHg 60%
13:00 +35°C° 0.4 mm 2 m/s 753 mmHg 61%
14:00 +35°C° 0.4 mm 2 m/s 752 mmHg 62%
15:00 +34°C° 0.2 mm 2 m/s 752 mmHg 66%
16:00 +32°C° 0.2 mm 2 m/s 752 mmHg 70%
17:00 +32°C° 0.2 mm 2 m/s 752 mmHg 74%
18:00 +30°C° 0 mm 1 m/s 753 mmHg 80%
19:00 +29°C° 0 mm 1 m/s 753 mmHg 86%
20:00 +27°C° 0 mm 1 m/s 754 mmHg 92%
21:00 +27°C° 0 mm 1 m/s 754 mmHg 94%
22:00 +26°C° 0 mm 1 m/s 754 mmHg 96%
23:00 +26°C° 0 mm 1 m/s 755 mmHg 98%

Depois de amanhã, 29 Outubro, Quinta-feira

Tempo Temperatura Precipitação Vento Pressão Humidade
00:00 +26°C° 0 mm 1 m/s 754 mmHg 98%
01:00 +26°C° 0 mm 1 m/s 754 mmHg 98%
02:00 +26°C° 0 mm 1 m/s 753 mmHg 98%
03:00 +26°C° 0 mm 1 m/s 754 mmHg 98%
04:00 +25°C° 0 mm 1 m/s 754 mmHg 99%
05:00 +25°C° 0 mm 1 m/s 754 mmHg 99%
06:00 +27°C° 0 mm 1 m/s 754 mmHg 93%
07:00 +28°C° 0 mm 1 m/s 755 mmHg 87%
08:00 +29°C° 0 mm 1 m/s 756 mmHg 81%
09:00 +31°C° 0 mm 1 m/s 756 mmHg 72%
10:00 +34°C° 0 mm 2 m/s 756 mmHg 62%
11:00 +36°C° 0 mm 2 m/s 756 mmHg 53%
12:00 +36°C° 0 mm 2 m/s 755 mmHg 52%
13:00 +37°C° 0 mm 2 m/s 754 mmHg 51%
14:00 +37°C° 0 mm 2 m/s 753 mmHg 50%
15:00 +36°C° 0.1 mm 2 m/s 753 mmHg 56%
16:00 +34°C° 0.1 mm 2 m/s 753 mmHg 62%
17:00 +32°C° 0.1 mm 2 m/s 754 mmHg 68%
18:00 +31°C° 0.2 mm 2 m/s 754 mmHg 75%
19:00 +29°C° 0.2 mm 2 m/s 755 mmHg 81%
20:00 +28°C° 0.2 mm 2 m/s 755 mmHg 87%
21:00 +27°C° 0 mm 2 m/s 756 mmHg 90%
22:00 +27°C° 0 mm 1 m/s 756 mmHg 93%
23:00 +26°C° 0 mm 1 m/s 756 mmHg 95%

30 Outubro, Sexta-feira

Tempo Temperatura Precipitação Vento Pressão Humidade
00:00 +26°C° 0 mm 1 m/s 756 mmHg 96%
01:00 +26°C° 0 mm 1 m/s 755 mmHg 97%
02:00 +25°C° 0 mm 1 m/s 755 mmHg 98%
03:00 +25°C° 0 mm 1 m/s 755 mmHg 98%
04:00 +25°C° 0 mm 1 m/s 755 mmHg 98%
05:00 +25°C° 0 mm 1 m/s 755 mmHg 98%
06:00 +27°C° 0 mm 1 m/s 756 mmHg 93%
07:00 +28°C° 0 mm 1 m/s 756 mmHg 87%
08:00 +29°C° 0 mm 1 m/s 757 mmHg 82%
09:00 +31°C° 0.4 mm 2 m/s 757 mmHg 75%
10:00 +32°C° 0.4 mm 2 m/s 757 mmHg 69%
11:00 +35°C° 0.4 mm 3 m/s 757 mmHg 62%
12:00 +34°C° 0.8 mm 3 m/s 756 mmHg 66%
13:00 +34°C° 0.8 mm 3 m/s 755 mmHg 70%
14:00 +33°C° 0.8 mm 3 m/s 754 mmHg 74%
15:00 +33°C° 0.7 mm 3 m/s 754 mmHg 77%
16:00 +31°C° 0.7 mm 2 m/s 754 mmHg 79%
17:00 +30°C° 0.7 mm 2 m/s 754 mmHg 81%
18:00 +29°C° 0 mm 2 m/s 755 mmHg 85%
19:00 +28°C° 0 mm 2 m/s 756 mmHg 88%
20:00 +27°C° 0 mm 1 m/s 756 mmHg 92%
21:00 +27°C° 0 mm 1 m/s 756 mmHg 94%
22:00 +27°C° 0 mm 1 m/s 756 mmHg 95%
23:00 +26°C° 0 mm 1 m/s 756 mmHg 97%

31 Outubro, Sábado

Tempo Temperatura Precipitação Vento Pressão Humidade
00:00 +26°C° 0.1 mm 1 m/s 756 mmHg 97%
01:00 +26°C° 0.1 mm 1 m/s 756 mmHg 98%
02:00 +26°C° 0.1 mm 1 m/s 755 mmHg 98%
03:00 +26°C° 0 mm 1 m/s 755 mmHg 98%
04:00 +26°C° 0 mm 1 m/s 756 mmHg 98%
05:00 +25°C° 0 mm 1 m/s 756 mmHg 98%
06:00 +27°C° 0 mm 1 m/s 756 mmHg 93%
07:00 +28°C° 0 mm 1 m/s 757 mmHg 88%
08:00 +29°C° 0 mm 2 m/s 757 mmHg 83%
09:00 +31°C° 0.1 mm 2 m/s 757 mmHg 75%
10:00 +33°C° 0.1 mm 3 m/s 757 mmHg 67%
11:00 +35°C° 0.1 mm 3 m/s 757 mmHg 59%
12:00 +34°C° 0.4 mm 3 m/s 756 mmHg 63%
13:00 +33°C° 0.4 mm 3 m/s 756 mmHg 67%
14:00 +33°C° 0.4 mm 3 m/s 755 mmHg 71%
15:00 +31°C° 0.1 mm 3 m/s 755 mmHg 73%
16:00 +30°C° 0.1 mm 3 m/s 755 mmHg 74%
17:00 +30°C° 0.1 mm 3 m/s 754 mmHg 76%
18:00 +29°C° 0 mm 2 m/s 755 mmHg 80%
19:00 +27°C° 0 mm 2 m/s 755 mmHg 85%
20:00 +26°C° 0 mm 2 m/s 756 mmHg 90%
21:00 +26°C° 0 mm 1 m/s 756 mmHg 92%
22:00 +26°C° 0 mm 1 m/s 756 mmHg 94%
23:00 +25°C° 0 mm 1 m/s 757 mmHg 97%

1 Novembro, Domingo

Tempo Temperatura Precipitação Vento Pressão Humidade
00:00 +25°C° 0.3 mm 1 m/s 756 mmHg 97%
01:00 +25°C° 0.3 mm 1 m/s 756 mmHg 97%
02:00 +25°C° 0.3 mm 1 m/s 756 mmHg 98%
03:00 +25°C° 0.7 mm 1 m/s 756 mmHg 98%
04:00 +25°C° 0.7 mm 1 m/s 756 mmHg 98%
05:00 +25°C° 0.7 mm 1 m/s 756 mmHg 99%
06:00 +26°C° 0.5 mm 1 m/s 756 mmHg 95%
07:00 +27°C° 0.5 mm 1 m/s 757 mmHg 92%
08:00 +28°C° 0.5 mm 1 m/s 757 mmHg 89%
09:00 +30°C° 0.2 mm 1 m/s 757 mmHg 81%
10:00 +31°C° 0.2 mm 2 m/s 757 mmHg 72%
11:00 +34°C° 0.2 mm 2 m/s 757 mmHg 63%
12:00 +34°C° 0.5 mm 2 m/s 756 mmHg 63%
13:00 +34°C° 0.5 mm 2 m/s 755 mmHg 62%
14:00 +35°C° 0.5 mm 2 m/s 754 mmHg 61%
15:00 +34°C° 0.3 mm 2 m/s 754 mmHg 66%
16:00 +31°C° 0.3 mm 2 m/s 754 mmHg 71%
17:00 +30°C° 0.3 mm 2 m/s 754 mmHg 76%
18:00 +29°C° 0 mm 2 m/s 755 mmHg 80%
19:00 +28°C° 0 mm 2 m/s 755 mmHg 84%
20:00 +27°C° 0 mm 2 m/s 756 mmHg 88%
21:00 +27°C° 0 mm 1 m/s 756 mmHg 91%
22:00 +26°C° 0 mm 1 m/s 756 mmHg 93%
23:00 +26°C° 0 mm 1 m/s 756 mmHg 95%
Mostrar mais